Regional Weather Roundup
Issued by NWS Green Bay, WI

Home | Current Version | Previous Version | Text Only | Print | Product List | Glossary On
Versions: 1 2 3 4 5 6 7 8 9 10 11 12 13 14 15 16 17 18 19 20 21 22 23 24 25 26 27 28 29 30 31 32 33 34 35 36 37 38 39 40 41 42 43 44 45 46 47 48 49 50
000
ASUS43 KGRB 281710
RWRGRB

NORTH-CENTRAL AND NORTHEAST WISCONSIN REGIONAL WEATHER ROUNDUP
NATIONAL WEATHER SERVICE GREEN BAY WI
1100 AM CST SAT FEB 28 2015

WIZ005-009-010>012-018-019-281800-
NORTH CENTRAL WISCONSIN

CITY           SKY/WX    TMP DP  RH WIND       PRES   REMARKS
IRONWOOD       SUNNY     16   1  53 S13       30.42F WCI   2
MANITOWISH WTR SUNNY     11  -2  54 S9        30.44F WCI  -1
ARBOR VITAE    SUNNY     13   1  59 S10       30.45F WCI   0
EAGLE RIVER    SUNNY     13  -3  50 SW7       30.45F WCI   2
LAND O LAKES   SUNNY     16  -1  47 SW6       30.44F WCI   7
RHINELANDER    SUNNY     10  -2  58 SW8       30.48F WCI  -2
PHILLIPS       SUNNY     10  -2  59 S8        30.47F WCI  -3
ANTIGO         SUNNY      9   0  68 SW6       30.51F WCI  -1
TOMAHAWK       SUNNY     13  -2  52 CALM      30.50S
MERRILL        SUNNY     11   0  61 SW7       30.53S WCI   0
$$

WIZ013-073-281800-
NORTHEAST WISCONSIN

CITY           SKY/WX    TMP DP  RH WIND       PRES   REMARKS
IRON MOUNTAIN  SUNNY     18   0  45 SW7       30.50F WCI   9
MARINETTE      SUNNY     14   0  52 SW5       30.61S WCI   6
OCONTO         SUNNY     15   1  53 SW6       30.63S WCI   7
$$

WIZ017-030-035>037-045-281800-
CENTRAL WISCONSIN

CITY           SKY/WX    TMP DP  RH WIND       PRES   REMARKS
MEDFORD        SUNNY      6  -1  73 S7        30.51S WCI  -6
WAUSAU         SUNNY      9   1  70 CALM      30.55S
MOSINEE        SUNNY     10   0  61 SW7       30.56F WCI   0
MARSHFIELD     SUNNY     10  -3  55 S8        30.54F WCI  -2
WISC RAPIDS    SUNNY     10  -5  50 S6        30.60F WCI   0
STEVENS POINT  SUNNY      9  -5  52 SW7       30.58F WCI  -2
WAUPACA        SUNNY     17  -3  42 S3        30.62F
SHAWANO        SUNNY     15   1  55 SW3       30.62F
CLINTONVILLE   SUNNY     12   1  62 SW7       30.61F WCI   2
$$

WIZ038-039-048-051-281800-
FOX VALLEY

CITY           SKY/WX    TMP DP  RH WIND       PRES   REMARKS
NWS GREEN BAY  SUNNY     13   1  59 S7        30.64F WCI   3
APPLETON       MOSUNNY   12   0  57 SW7       30.63S WCI   2
OSHKOSH        SUNNY     12  -1  56 SW9       30.64S WCI   0
FOND DU LAC    SUNNY     13  -2  51 S7        30.65S WCI   3
$$

WIZ022-050-052-281800-
EAST CENTRAL WISCONSIN

CITY           SKY/WX    TMP DP  RH WIND       PRES   REMARKS
STURGEON BAY   SUNNY     12   0  57 W10       30.64S WCI  -1
MANITOWOC      SUNNY     19   1  45 VRB5      30.66S
SHEBOYGAN      SUNNY     14  -2  49 S8        30.65F WCI   3
$$

LMZ563-521-522-541>543-281800-
LAKESHORE

STATION/POSITION TIME  TEMP    WIND        PRES    VSBY  WAVE
                       AIR SEA DIR/SP/G                  HT/PER
                 (UTC) (F)     (DEG/KT/KT) (MB)    (MI)  (FT/S)
SHEBOYGAN LKSHOR 1700   14     200/ 10/ 11 1040.2F
KEWAUNEE LKSHORE 1700   13     220/  7/  9 1036.9S
TWO RIVERS CG    1600   12                 1038.1      6
NORTHPORT PIER   1700   15     240/  5/  9 1036.9S
SISTER BAY LKSHO 1700   26     260/  6/  7   N/A
STURGEON BAY CG  1600   12     250/  4     1037.5      6   0
CHAMBERS ISLAND  1700   10     180/  7/ 10 1036.9S
MENOMINEE LKSHOR 1700   10     160/ 11     1037.1F
$$


USA.gov is the U.S. government's official web portal to all federal, state and local government web resources and services.